FW4072 Weather Reports


Display with metric or nautical units.
time (UTC)temp
F
wind
direction
speed
MPH
gust
MPH
rain 1hr
in
rain 24hr
in
rain mn
in
humidity
%
barometer
mb
20260903135412 81 1.0 2.0 0.00 0.08 0.08 31 1018.7
20260903134511 82 0.0 2.0 0.00 0.08 0.08 28 1018.7
20260903133612 83 0.0 2.0 0.00 0.08 0.08 28 1018.8
20260903132710 83 0.0 2.0 0.00 0.08 0.08 30 1018.7
20260903131809 84 113 0.0 2.0 0.00 0.08 0.08 28 1018.9
20260903130908 85 0.0 2.0 0.00 0.08 0.08 24 1018.9
20260903125107 86 0.0 2.0 0.00 0.08 0.08 24 1018.9
20260903124208 86 0.0 2.0 0.00 0.08 0.08 23 1018.8
20260903123328 86 0.0 2.0 0.00 0.08 0.08 23 1018.9
20260903122405 85 158 1.0 2.0 0.00 0.08 0.08 24 1019.1
20260903121505 86 0.0 2.0 0.00 0.08 0.08 25 1019.1
20260903120604 86 135 1.0 2.0 0.00 0.08 0.08 27 1019.2
20260903115703 84 0.0 1.0 0.00 0.08 0.08 28 1019.3
20260903114802 86 135 0.0 2.0 0.00 0.08 0.08 25 1019.4
20260903113902 87 135 2.0 4.0 0.00 0.08 0.08 24 1019.5
20260903112101 87 135 1.0 2.0 0.00 0.08 0.08 24 1019.5
20260903111200 87 135 1.0 3.0 0.00 0.08 0.08 26 1019.6
20260903110320 85 0.0 1.0 0.00 0.08 0.08 28 1019.8
20260903105359 86 0.0 2.0 0.00 0.08 0.08 26 1019.9
20260903104500 86 0.0 1.0 0.00 0.08 0.08 29 1020.1
20260903103557 85 135 1.0 2.0 0.00 0.08 0.08 29 1020.0
20260903102658 84 0.0 2.0 0.00 0.08 0.08 31 1020.1
20260903101756 85 3.0 6.0 0.00 0.08 0.08 29 1020.0
20260903100915 84 128 1.0 4.0 0.00 0.08 0.08 33 1020.0
20260903095054 84 135 1.0 4.0 0.00 0.08 0.08 34 1020.2
20260903094153 83 135 1.0 3.0 0.00 0.08 0.08 35 1020.3
20260903093254 83 113 1.0 4.0 0.00 0.08 0.08 38 1020.5
20260903092352 83 0.0 2.0 0.00 0.08 0.08 41 1020.3
20260903091451 83 113 1.0 2.0 0.00 0.08 0.08 37 1020.6
20260903090550 82 0.0 1.0 0.00 0.08 0.08 43 1020.6
20260903085650 82 135 1.0 3.0 0.00 0.08 0.08 43 1020.7
20260903084751 80 0.0 2.0 0.00 0.08 0.08 47 1020.8
20260903083849 79 0.0 2.0 0.00 0.08 0.08 53 1020.8
20260903082048 77 135 1.0 2.0 0.00 0.08 0.08 55 1020.9
20260903081147 77 2.0 3.0 0.00 0.08 0.08 56 1021.0
20260903080246 76 135 1.0 4.0 0.00 0.08 0.08 60 1021.2
20260903075407 74 0.0 2.0 0.00 0.08 0.08 65 1021.1
20260903074446 72 0.0 1.0 0.00 0.08 0.08 65 1021.1
20260903073544 72 0.0 2.0 0.00 0.08 0.08 64 1021.1
20260903072643 72 1.0 2.0 0.00 0.08 0.08 66 1021.0
20260903071744 72 0.0 1.0 0.00 0.08 0.08 66 1021.1
20260903070842 72 135 0.0 3.0 0.00 0.08 0.08 68 1021.1
20260903065040 71 158 1.0 2.0 0.00 0.08 0.08 70 1020.8
20260903064140 71 0.0 1.0 0.00 0.08 0.08 71 1020.7
20260903063302 70 0.0 2.0 0.00 0.08 0.08 73 1020.9
20260903062338 69 0.0 2.0 0.00 0.08 0.08 74 1020.9
20260903061439 69 0.0 0.0 0.00 0.08 0.08 75 1021.0
20260903060538 69 0.0 1.0 0.00 0.08 0.08 75 1021.0
20260903055637 69 0.0 0.0 0.00 0.08 0.08 75 1020.9
20260903054756 69 0.0 0.0 0.00 0.08 0.08 75 1021.0
20260903053918 68 0.0 2.0 0.00 0.08 0.08 81 1021.0
20260903052035 66 0.0 1.0 0.00 0.08 0.08 85 1021.0
20260903051134 65 0.0 0.0 0.00 0.08 0.08 87 1020.8
20260903050233 64 0.0 0.0 0.00 0.08 0.08 87 1021.0
20260903045413 63 0.0 0.0 0.00 0.08 0.08 87 1021.1
20260903044432 63 0.0 0.0 0.00 0.08 0.08 87 1021.0
20260903043532 62 0.0 0.0 0.00 0.08 0.08 87 1020.8
20260903042631 62 0.0 0.0 0.00 0.08 0.08 86 1020.8
20260903041731 62 0.0 0.0 0.00 0.08 0.08 86 1020.8
20260903040829 62 0.0 0.0 0.01 0.08 0.08 86 1020.9
20260903035028 62 0.0 0.0 0.06 0.08 0.08 85 1020.7
20260903034127 62 0.0 2.0 0.08 0.08 0.08 85 1020.7
20260903033227 62 0.0 0.0 0.08 0.08 0.08 84 1020.7
20260903032327 63 0.0 0.0 0.08 0.08 0.08 83 1021.0
20260903031425 63 0.0 4.0 0.08 0.08 0.08 82 1020.8
20260903030545 64 0.0 0.0 0.07 0.07 0.07 81 1020.8
20260903025646 64 0.0 3.0 0.02 0.02 0.02 79 1020.6
20260903024743 65 0.0 1.0 0.00 0.00 0.00 76 1021.2
20260903023823 67 150 2.0 5.0 0.00 0.00 0.00 72 1021.0
20260903022022 67 135 1.0 2.0 0.00 0.00 0.00 70 1020.7
20260903021141 67 135 2.0 4.0 0.00 0.00 0.00 71 1020.7
20260903020242 67 135 1.0 6.0 0.00 0.00 0.00 72 1020.6
20260903015320 66 135 1.0 3.0 0.00 0.00 0.00 73 1020.6
20260903014501 66 0.0 1.0 0.00 0.00 0.00 74 1020.6
20260903013518 66 2.0 3.0 0.00 0.00 0.00 74 1020.4
20260903012618 66 0.0 2.0 0.00 0.00 0.00 73 1020.3
20260903011717 65 135 1.0 2.0 0.00 0.00 0.00 74 1020.4
20260903010817 65 0.0 2.0 0.00 0.00 0.00 72 1020.3
20260903005015 65 0.0 0.0 0.00 0.00 0.00 72 1020.2
20260903004136 65 0.0 0.0 0.00 0.00 0.00 72 1020.2
20260903003214 65 0.0 0.0 0.00 0.00 0.00 71 1020.3
20260903002333 65 0.0 0.0 0.00 0.00 0.00 71 1020.2
20260903001413 66 0.0 0.0 0.00 0.00 0.00 70 1020.1
20260903000535 66 0.0 1.0 0.00 0.00 0.00 70 1020.2
20260902235632 66 0.0 0.0 0.00 0.00 0.00 70 1020.1
20260902234711 66 0.0 0.0 0.00 0.00 0.00 69 1020.4
20260902233812 66 0.0 1.0 0.00 0.00 0.00 69 1020.4
20260902232909 66 0.0 1.0 0.00 0.00 0.00 68 1020.4
20260902231129 67 0.0 0.0 0.00 0.00 0.00 67 1020.4
20260902230207 67 0.0 0.0 0.00 0.00 0.00 66 1020.5
20260902225307 68 0.0 0.0 0.00 0.00 0.00 65 1020.5
20260902224426 68 0.0 1.0 0.00 0.00 0.00 64 1020.4
20260902223526 68 0.0 0.0 0.00 0.00 0.00 63 1020.4
20260902222605 68 0.0 0.0 0.00 0.00 0.00 62 1020.5
20260902221704 69 0.0 0.0 0.00 0.00 0.00 62 1020.5
20260902220804 68 0.0 1.0 0.00 0.00 0.00 62 1020.4
20260902215903 68 0.0 0.0 0.00 0.00 0.00 63 1020.5
20260902214122 68 0.0 0.0 0.00 0.00 0.00 62 1020.5
20260902213201 69 0.0 0.0 0.00 0.00 0.00 61 1020.5
20260902212300 69 0.0 0.0 0.00 0.00 0.00 61 1020.4
20260902211400 68 0.0 0.0 0.00 0.00 0.00 61 1020.6
20260902210519 69 0.0 0.0 0.00 0.00 0.00 60 1020.7
20260902205558 69 0.0 0.0 0.00 0.00 0.00 60 1020.5
20260902204657 69 0.0 0.0 0.00 0.00 0.00 59 1020.5
20260902203726 69 0.0 0.0 0.00 0.00 0.00 58 1020.5
20260902202826 70 0.0 0.0 0.00 0.00 0.00 58 1020.4
20260902201045 70 0.0 1.0 0.00 0.00 0.00 59 1020.3
20260902200124 70 0.0 0.0 0.00 0.00 0.00 58 1020.3
20260902195223 70 0.0 0.0 0.00 0.00 0.00 58 1020.2
20260902194324 70 0.0 0.0 0.00 0.00 0.00 58 1020.4
20260902193442 70 0.0 0.0 0.00 0.00 0.00 59 1020.3
20260902192541 70 0.0 0.0 0.00 0.00 0.00 59 1020.3
20260902191621 70 0.0 0.0 0.00 0.00 0.00 59 1020.3
20260902190800 70 0.0 0.0 0.00 0.00 0.00 58 1020.3
20260902185819 71 0.0 0.0 0.00 0.00 0.00 55 1020.3
20260902184018 71 0.0 0.0 0.00 0.00 0.00 54 1020.2
20260902183117 71 0.0 0.0 0.00 0.00 0.00 52 1020.2
20260902182216 72 0.0 0.0 0.00 0.00 0.00 50 1020.2
20260902181317 73 0.0 0.0 0.00 0.00 0.00 49 1020.0
20260902180434 73 0.0 0.0 0.00 0.00 0.00 47 1020.1
20260902175514 74 0.0 0.0 0.00 0.00 0.00 45 1019.9
20260902174613 74 0.0 0.0 0.00 0.00 0.00 44 1019.8
20260902173712 75 0.0 1.0 0.00 0.00 0.00 41 1019.7
20260902172811 76 0.0 1.0 0.00 0.00 0.00 39 1019.6
20260902171951 77 0.0 0.0 0.00 0.00 0.00 37 1019.4
20260902170110 77 0.0 0.0 0.00 0.00 0.00 36 1019.3
20260902165211 78 0.0 0.0 0.00 0.00 0.00 36 1019.2
20260902164308 78 0.0 0.0 0.00 0.00 0.00 35 1019.3
20260902163409 79 0.0 0.0 0.00 0.00 0.00 33 1019.2
20260902162507 80 0.0 0.0 0.00 0.00 0.00 32 1019.3
20260902161607 81 0.0 1.0 0.00 0.00 0.00 31 1019.4
20260902160706 81 0.0 0.0 0.00 0.00 0.00 30 1019.3
20260902155806 82 0.0 1.0 0.00 0.00 0.00 28 1019.4
20260902154906 83 0.0 2.0 0.00 0.00 0.00 26 1019.5
20260902153103 83 0.0 1.0 0.00 0.00 0.00 25 1019.5
20260902152203 84 0.0 2.0 0.00 0.00 0.00 26 1019.6
20260902151302 84 0.0 0.0 0.00 0.00 0.00 25 1019.6
20260902150401 84 0.0 1.0 0.00 0.00 0.00 25 1019.6
20260902145502 84 0.0 1.0 0.00 0.00 0.00 23 1019.6
20260902144600 84 0.0 0.0 0.00 0.00 0.00 24 1019.6
20260902143741 84 0.0 0.0 0.00 0.00 0.00 22 1019.7
20260902142820 84 0.0 0.0 0.00 0.00 0.00 21 1019.8
20260902141858 85 0.0 2.0 0.00 0.00 0.00 19 1019.9
20260902140057 85 0.0 2.0 0.00 0.00 0.00 18 1019.9